Apalachicola, FL

8:09 AM EST on November 18, 2017 (GMT -0500)
Apalachicola Municipal

Weather History for KAAF - May, 2013

Change the Weather History Date:

Wednesday, May 29, 2013

  Actual Average Record
Temperature  
Mean Temperature 82 °F 78 °F  
Max Temperature 86 °F 87 °F 93 °F (1937)
Min Temperature 77 °F 68 °F 60 °F (1976)
Degree Days  
Heating Degree Days 0    
Month to date heating degree days 9  
Since 1 July heating degree days 1129  
Cooling Degree Days 17    
Month to date cooling degree days 150  
Year to date cooling degree days 347  
Growing Degree Days 30 (Base 50)    
Moisture  
Dew Point 70 °F    
Average Humidity 70    
Maximum Humidity 79    
Minimum Humidity 61    
Precipitation  
Precipitation 0.00 in 0.11 in 6.07 in (1970)
Month to date precipitation 1.38 2.27  
Year to date precipitation 19.28 19.15  
Sea Level Pressure  
Sea Level Pressure 30.08 in    
Wind  
Wind Speed 11 mph (ESE)    
Max Wind Speed 20 mph    
Max Gust Speed 25 mph    
Visibility 10 miles    
Events      
T = Trace of Precipitation, MM = Missing Value Source: NWS Daily Summary

Daily Weather History Graph

Daily Weather History Graph

Search for Another Location

Airport or City:

Trip Planner

Search our weather history database for the weather conditions in past years. The results will help you decide how hot, cold, wet, or windy it might be!

Date:

Astronomy

May. 29, 2013 Rise Set
Actual Time 6:40 AM EDT 8:34 PM EDT
Civil Twilight 6:14 AM EDT 9:01 PM EDT
Nautical Twilight 5:41 AM EDT 9:33 PM EDT
Astronomical Twilight 5:07 AM EDT 10:08 PM EDT
Moon 12:06 AM EDT (5/29) 11:27 AM EDT (5/29)
Length of Visible Light 14h 47m
Length of Day
13h 53m
Waning Gibbous, 73% of the Moon is Illuminated
May 29
Waning Gibbous
May 31
Last Quarter
Jun 8
New
Jun 16
First Quarter
Jun 23
Full

Hourly Weather History & Observations

Time (EDT) Temp. Heat Index Dew Point Humidity Pressure Visibility Wind Dir Wind Speed Gust Speed Precip Events Conditions
12:53 AM 77.0 °F - 66.9 °F 71% 30.08 in 10.0 mi East 11.5 mph 20.7 mph N/A   Partly Cloudy
1:53 AM 79.0 °F - 70.0 °F 74% 30.08 in 10.0 mi SE 8.1 mph - N/A   Overcast
2:53 AM 78.1 °F - 69.1 °F 74% 30.07 in 10.0 mi SE 10.4 mph - N/A   Scattered Clouds
3:53 AM 77.0 °F - 70.0 °F 79% 30.06 in 10.0 mi ESE 10.4 mph 18.4 mph N/A   Scattered Clouds
4:32 AM 77.0 °F - 69.8 °F 78% 30.04 in 10.0 mi SE 10.4 mph - N/A   Mostly Cloudy
4:53 AM 78.1 °F - 70.0 °F 76% 30.04 in 10.0 mi ESE 10.4 mph 18.4 mph N/A   Overcast
5:53 AM 78.1 °F - 71.1 °F 79% 30.05 in 10.0 mi SE 12.7 mph 17.3 mph N/A   Mostly Cloudy
6:53 AM 78.1 °F - 70.0 °F 76% 30.07 in 10.0 mi SE 13.8 mph 18.4 mph N/A   Overcast
7:53 AM 78.1 °F - 70.0 °F 76% 30.09 in 10.0 mi SE 12.7 mph 18.4 mph N/A   Mostly Cloudy
8:53 AM 79.0 °F - 71.1 °F 77% 30.10 in 10.0 mi ESE 13.8 mph 18.4 mph N/A   Overcast
9:37 AM 78.8 °F - 71.6 °F 78% 30.11 in 10.0 mi ESE 12.7 mph 20.7 mph N/A   Mostly Cloudy
9:46 AM 80.6 °F 84.6 °F 71.6 °F 74% 30.10 in 10.0 mi ESE 12.7 mph 21.9 mph N/A   Mostly Cloudy
9:53 AM 80.1 °F 83.6 °F 71.1 °F 74% 30.11 in 10.0 mi ESE 12.7 mph 21.9 mph N/A   Overcast
10:53 AM 82.9 °F 87.5 °F 71.1 °F 67% 30.12 in 10.0 mi ESE 13.8 mph 20.7 mph N/A   Overcast
11:53 AM 82.9 °F 87.5 °F 71.1 °F 67% 30.13 in 10.0 mi SE 16.1 mph 20.7 mph N/A   Mostly Cloudy
12:07 PM 82.4 °F 86.3 °F 69.8 °F 66% 30.13 in 10.0 mi ESE 11.5 mph 23.0 mph N/A   Scattered Clouds
12:53 PM 82.9 °F 87.5 °F 71.1 °F 67% 30.12 in 10.0 mi SE 13.8 mph 20.7 mph N/A   Mostly Cloudy
1:07 PM 84.2 °F 89.6 °F 71.6 °F 66% 30.12 in 10.0 mi ESE 13.8 mph 23.0 mph N/A   Mostly Cloudy
1:24 PM 84.2 °F 89.6 °F 71.6 °F 66% 30.12 in 10.0 mi East 15.0 mph 21.9 mph N/A   Scattered Clouds
1:53 PM 84.0 °F 89.0 °F 71.1 °F 65% 30.11 in 10.0 mi SE 12.7 mph - N/A   Partly Cloudy
2:53 PM 84.0 °F 89.6 °F 72.0 °F 67% 30.09 in 10.0 mi East 15.0 mph 23.0 mph N/A   Partly Cloudy
3:53 PM 84.0 °F 88.4 °F 70.0 °F 63% 30.08 in 10.0 mi SSE 13.8 mph 19.6 mph N/A   Clear
4:53 PM 84.9 °F 90.1 °F 71.1 °F 63% 30.06 in 10.0 mi ESE 10.4 mph - N/A   Clear
5:53 PM 84.9 °F 89.4 °F 70.0 °F 61% 30.06 in 10.0 mi SE 10.4 mph - N/A   Clear
6:53 PM 82.9 °F 87.0 °F 70.0 °F 65% 30.06 in 10.0 mi SE 8.1 mph - N/A   Clear
7:53 PM 81.0 °F 84.1 °F 69.1 °F 67% 30.04 in 10.0 mi ESE 6.9 mph - N/A   Clear
8:53 PM 79.0 °F - 70.0 °F 74% 30.05 in 10.0 mi ESE 6.9 mph - N/A   Clear
9:53 PM 79.0 °F - 70.0 °F 74% 30.06 in 10.0 mi East 6.9 mph - N/A   Partly Cloudy
10:53 PM 79.0 °F - 70.0 °F 74% 30.07 in 10.0 mi East 5.8 mph - N/A   Clear
11:53 PM 79.0 °F - 70.0 °F 74% 30.07 in 10.0 mi ESE 8.1 mph - N/A   Clear